Tracking 34719 objects as of 12-Jul-2026
HD Live streaming from Space Station
objects crossing your sky now

QIANFAN-173

Track QIANFAN-173 now!
10-day predictions
QIANFAN-173 is classified as:


NORAD ID: 69390
Int'l Code: 2026-124J
Perigee: 885.4 km
Apogee: 894.7 km
Inclination: 89.0 °
Period: 102.6 minutes
Semi major axis: 7261 km
RCS: Unknown
Launch date: June 4, 2026
Source: People's Republic of China (PRC)
Launch site: Taiyaun Space Center, China (TSC)
Your satellite tracking list
Your tracking list is empty




NASA's NSSDC Master Catalog

Two Line Element Set (TLE):
1 69390U 26124J   26191.81966330 -.02209565  00000-0 -15396+1 0  9992
2 69390  88.9989 359.3604 0006421 163.2801 196.8593 14.03154793  5164
Source of the keplerian elements: AFSPC